When you browse on this site, cookies collect data to enhance your experience and personalize the content and advertising you see.
Visit our Privacy Policy to learn more. By continuing to use the site, you agree to this use of cookies and data.

Hourly Weather Sydney

Today, 6 August, Thursday

Time Temperature Precipitation Wind Pressure Humidity
00:00 +5°C° 0 mm 6 mps 761 mmHg 60%
01:00 +5°C° 0 mm 6 mps 761 mmHg 61%
02:00 +4°C° 0 mm 6 mps 761 mmHg 62%
03:00 +5°C° 0 mm 5 mps 761 mmHg 63%
04:00 +5°C° 0 mm 5 mps 761 mmHg 64%
05:00 +3°C° 0 mm 5 mps 762 mmHg 65%
06:00 +4°C° 0 mm 4 mps 762 mmHg 67%
07:00 +3°C° 0 mm 4 mps 763 mmHg 68%
08:00 +5°C° 0 mm 4 mps 763 mmHg 60%
09:00 +7°C° 0 mm 4 mps 763 mmHg 53%
10:00 +11°C° 0 mm 4 mps 763 mmHg 45%
11:00 +12°C° 0 mm 3 mps 763 mmHg 40%
12:00 +14°C° 0 mm 3 mps 763 mmHg 35%
13:00 +16°C° 0 mm 2 mps 762 mmHg 30%
14:00 +15°C° 0 mm 2 mps 762 mmHg 34%
15:00 +15°C° 0 mm 2 mps 762 mmHg 38%
16:00 +14°C° 0 mm 2 mps 762 mmHg 42%
17:00 +12°C° 0 mm 3 mps 763 mmHg 46%
18:00 +11°C° 0 mm 3 mps 764 mmHg 50%
19:00 +10°C° 0 mm 3 mps 765 mmHg 55%
20:00 +9°C° 0 mm 3 mps 765 mmHg 58%
21:00 +9°C° 0 mm 3 mps 765 mmHg 60%
22:00 +8°C° 0 mm 3 mps 766 mmHg 63%
23:00 +8°C° 0 mm 2 mps 766 mmHg 65%

Tomorrow, 7 August, Friday

Time Temperature Precipitation Wind Pressure Humidity
00:00 +7°C° 0 mm 2 mps 766 mmHg 67%
01:00 +7°C° 0 mm 2 mps 766 mmHg 68%
02:00 +7°C° 0 mm 2 mps 765 mmHg 68%
03:00 +7°C° 0 mm 2 mps 765 mmHg 67%
04:00 +8°C° 0 mm 2 mps 765 mmHg 67%
05:00 +8°C° 0 mm 2 mps 765 mmHg 69%
06:00 +8°C° 0 mm 2 mps 765 mmHg 71%
07:00 +8°C° 0 mm 2 mps 765 mmHg 73%
08:00 +10°C° 0.1 mm 2 mps 765 mmHg 73%
09:00 +12°C° 0.1 mm 2 mps 765 mmHg 73%
10:00 +13°C° 0.1 mm 2 mps 765 mmHg 74%
11:00 +13°C° 0.1 mm 3 mps 765 mmHg 73%
12:00 +13°C° 0.1 mm 3 mps 764 mmHg 73%
13:00 +14°C° 0.1 mm 3 mps 763 mmHg 73%
14:00 +13°C° 1.5 mm 3 mps 763 mmHg 79%
15:00 +12°C° 1.5 mm 3 mps 763 mmHg 86%
16:00 +13°C° 1.5 mm 2 mps 762 mmHg 93%
17:00 +12°C° 1.1 mm 3 mps 762 mmHg 93%
18:00 +12°C° 1.1 mm 4 mps 762 mmHg 93%
19:00 +12°C° 1.1 mm 4 mps 762 mmHg 93%
20:00 +12°C° 1.1 mm 5 mps 762 mmHg 94%
21:00 +11°C° 1.1 mm 6 mps 762 mmHg 94%
22:00 +11°C° 1.1 mm 6 mps 762 mmHg 95%
23:00 +11°C° 0.5 mm 6 mps 761 mmHg 94%

Day after tomorrow, 8 August, Saturday

Time Temperature Precipitation Wind Pressure Humidity
00:00 +11°C° 0.5 mm 6 mps 761 mmHg 94%
01:00 +11°C° 0.5 mm 6 mps 760 mmHg 93%
02:00 +11°C° 0.7 mm 6 mps 760 mmHg 93%
03:00 +12°C° 0.7 mm 5 mps 759 mmHg 93%
04:00 +12°C° 0.7 mm 4 mps 759 mmHg 94%
05:00 +11°C° 0.2 mm 4 mps 759 mmHg 95%
06:00 +11°C° 0.2 mm 3 mps 759 mmHg 96%
07:00 +12°C° 0.2 mm 2 mps 759 mmHg 97%
08:00 +13°C° 0.2 mm 2 mps 759 mmHg 91%
09:00 +15°C° 0.2 mm 2 mps 759 mmHg 85%
10:00 +16°C° 0.2 mm 3 mps 759 mmHg 80%
11:00 +17°C° 0.1 mm 2 mps 758 mmHg 72%
12:00 +19°C° 0.1 mm 2 mps 757 mmHg 64%
13:00 +21°C° 0.1 mm 1 mps 756 mmHg 56%
14:00 +21°C° 0.5 mm 1 mps 756 mmHg 57%
15:00 +20°C° 0.5 mm 1 mps 756 mmHg 59%
16:00 +19°C° 0.5 mm 2 mps 756 mmHg 61%
17:00 +17°C° 0 mm 2 mps 756 mmHg 66%
18:00 +16°C° 0 mm 3 mps 757 mmHg 71%
19:00 +13°C° 0 mm 4 mps 757 mmHg 76%
20:00 +13°C° 0 mm 4 mps 757 mmHg 78%
21:00 +12°C° 0 mm 4 mps 757 mmHg 80%
22:00 +11°C° 0 mm 4 mps 758 mmHg 82%
23:00 +11°C° 0 mm 4 mps 757 mmHg 82%

9 August, Sunday

Time Temperature Precipitation Wind Pressure Humidity
00:00 +10°C° 0 mm 4 mps 757 mmHg 83%
01:00 +10°C° 0 mm 4 mps 757 mmHg 83%
02:00 +10°C° 0 mm 4 mps 757 mmHg 82%
03:00 +10°C° 0 mm 4 mps 756 mmHg 81%
04:00 +10°C° 0 mm 4 mps 756 mmHg 80%
05:00 +10°C° 0 mm 4 mps 756 mmHg 79%
06:00 +10°C° 0 mm 4 mps 756 mmHg 77%
07:00 +10°C° 0 mm 4 mps 756 mmHg 76%
08:00 +11°C° 0 mm 4 mps 756 mmHg 71%
09:00 +13°C° 0 mm 4 mps 756 mmHg 66%
10:00 +14°C° 0 mm 5 mps 756 mmHg 60%
11:00 +15°C° 0 mm 4 mps 756 mmHg 58%
12:00 +17°C° 0 mm 4 mps 755 mmHg 56%
13:00 +18°C° 0 mm 3 mps 755 mmHg 54%
14:00 +17°C° 0.5 mm 4 mps 755 mmHg 59%
15:00 +15°C° 0.5 mm 6 mps 755 mmHg 64%
16:00 +14°C° 0.5 mm 7 mps 754 mmHg 70%
17:00 +12°C° 2.9 mm 7 mps 755 mmHg 76%
18:00 +11°C° 2.9 mm 6 mps 755 mmHg 82%
19:00 +10°C° 2.9 mm 6 mps 756 mmHg 88%
20:00 +11°C° 2 mm 8 mps 756 mmHg 84%
21:00 +12°C° 2 mm 10 mps 756 mmHg 81%
22:00 +12°C° 2 mm 12 mps 757 mmHg 78%
23:00 +12°C° 0.4 mm 12 mps 757 mmHg 77%

10 August, Monday

Time Temperature Precipitation Wind Pressure Humidity
00:00 +12°C° 0.4 mm 12 mps 757 mmHg 77%
01:00 +12°C° 0.4 mm 12 mps 758 mmHg 77%
02:00 +12°C° 0.2 mm 11 mps 758 mmHg 76%
03:00 +12°C° 0.2 mm 11 mps 758 mmHg 75%
04:00 +12°C° 0.2 mm 11 mps 759 mmHg 74%
05:00 +12°C° 0.1 mm 11 mps 760 mmHg 73%
06:00 +12°C° 0.1 mm 10 mps 761 mmHg 72%
07:00 +12°C° 0.1 mm 10 mps 762 mmHg 71%
08:00 +12°C° 0.2 mm 10 mps 763 mmHg 69%
09:00 +13°C° 0.2 mm 10 mps 763 mmHg 67%
10:00 +13°C° 0.2 mm 10 mps 764 mmHg 64%
11:00 +15°C° 0.1 mm 9 mps 764 mmHg 62%
12:00 +15°C° 0.1 mm 9 mps 764 mmHg 60%
13:00 +15°C° 0.1 mm 8 mps 764 mmHg 58%
14:00 +15°C° 0.1 mm 8 mps 765 mmHg 60%
15:00 +15°C° 0.1 mm 7 mps 765 mmHg 61%
16:00 +14°C° 0.1 mm 7 mps 765 mmHg 63%
17:00 +13°C° 0.1 mm 6 mps 765 mmHg 68%
18:00 +13°C° 0.1 mm 6 mps 766 mmHg 73%
19:00 +12°C° 0.1 mm 5 mps 766 mmHg 78%
20:00 +12°C° 0.1 mm 5 mps 767 mmHg 79%
21:00 +10°C° 0.1 mm 5 mps 767 mmHg 80%
22:00 +11°C° 0.1 mm 4 mps 767 mmHg 82%
23:00 +11°C° 0.1 mm 4 mps 767 mmHg 84%

11 August, Tuesday

Time Temperature Precipitation Wind Pressure Humidity
00:00 +10°C° 0.1 mm 3 mps 767 mmHg 85%
01:00 +9°C° 0.1 mm 3 mps 767 mmHg 87%
02:00 +9°C° 0 mm 3 mps 767 mmHg 87%
03:00 +9°C° 0 mm 2 mps 766 mmHg 87%
04:00 +9°C° 0 mm 2 mps 766 mmHg 87%
05:00 +9°C° 0 mm 2 mps 766 mmHg 86%
06:00 +9°C° 0 mm 2 mps 767 mmHg 86%
07:00 +9°C° 0 mm 2 mps 767 mmHg 85%
08:00 +12°C° 0 mm 2 mps 767 mmHg 81%
09:00 +14°C° 0 mm 1 mps 767 mmHg 76%
10:00 +15°C° 0 mm 1 mps 767 mmHg 72%
11:00 +16°C° 0 mm 1 mps 767 mmHg 66%
12:00 +18°C° 0 mm 1 mps 766 mmHg 61%
13:00 +19°C° 0 mm 1 mps 765 mmHg 55%
14:00 +18°C° 0 mm 2 mps 765 mmHg 57%
15:00 +18°C° 0 mm 2 mps 765 mmHg 60%
16:00 +17°C° 0 mm 3 mps 764 mmHg 62%
17:00 +16°C° 0 mm 3 mps 764 mmHg 68%
18:00 +14°C° 0 mm 3 mps 765 mmHg 74%
19:00 +13°C° 0 mm 4 mps 765 mmHg 80%
20:00 +12°C° 0 mm 4 mps 765 mmHg 82%
21:00 +12°C° 0 mm 4 mps 765 mmHg 84%
22:00 +12°C° 0 mm 4 mps 766 mmHg 86%
23:00 +11°C° 0 mm 4 mps 765 mmHg 88%
Show more